This demonstration page uses our WeatherBlox Daily Observations layout. Learn more.

Left ArrowRight Arrow

44.31136, -96.79839

Hourly Observations for May 28, 2022

Temp ( °F °C ) Dew Point ( °F °C ) Humidity (%) Winds ( mph kmh ) Pressure ( in mb ) Visibility ( mi km ) Precip ( " mm )
12:56 am 00:56 Clear 69 20.6 54 12.2 59 59 SSE 21 33 29.67 1005 10 16 0.00 0.00
1:56 am 01:56 Clear 67 19.4 54 12.2 63 63 SSE 17 28 29.66 1004 10 16 0.00 0.00
2:56 am 02:56 Partly Cloudy 66 18.9 56 13.3 70 70 S 16 26 29.66 1005 10 16 0.00 0.00
3:56 am 03:56 Mostly Clear 65 18.3 55 12.8 70 70 SSE 20 31 29.61 1003 10 16 0.00 0.00
4:56 am 04:56 Clear 64 17.8 54 12.2 70 70 SSE 18 30 29.60 1002 10 16 0.00 0.00
5:56 am 05:56 Sunny 62 16.7 55 12.8 78 78 S 15 24 29.59 1002 10 16 0.00 0.00
6:56 am 06:56 Sunny 65 18.3 55 12.8 70 70 S 18 30 29.58 1002 10 16 0.00 0.00
7:56 am 07:56 Sunny 69 20.6 55 12.8 61 61 S 17 28 29.58 1002 10 16 0.00 0.00
8:56 am 08:56 Sunny 73 22.8 57 13.9 57 57 WSW 12 19 29.60 1002 10 16 0.00 0.00
9:56 am 09:56 Sunny 75 23.9 55 12.8 50 50 W 12 19 29.60 1002 10 16 0.00 0.00
10:56 am 10:56 Sunny 79 26.1 57 13.9 47 47 NW 13 20 29.59 1002 10 16 0.00 0.00
11:56 am 11:56 Sunny 82 27.8 55 12.8 40 40 NW 15 24 29.58 1002 10 16 0.00 0.00
12:56 pm 12:56 Sunny 83 28.3 53 11.7 36 36 NW 10 17 29.58 1002 10 16 0.00 0.00
1:56 pm 13:56 Sunny 85 29.4 53 11.7 33 33 VRB 5 7 29.57 1001 10 16 0.00 0.00
2:56 pm 14:56 Sunny 85 29.4 54 12.2 35 35 NW 7 11 29.57 1001 10 16 0.00 0.00
3:56 pm 15:56 Sunny 86 30 51 10.6 30 30 WSW 5 7 29.56 1001 10 16 0.00 0.00
4:56 pm 16:56 Sunny 90 32.2 52 11.1 27 27 Calm 29.55 1001 10 16 0.00 0.00
5:56 pm 17:56 Sunny 87 30.6 54 12.2 32 32 N 3 6 29.53 1000 10 16 0.00 0.00
6:56 pm 18:56 Sunny 87 30.6 52 11.1 30 30 E 10 17 29.50 999 10 16 0.00 0.00
7:56 pm 19:56 Sunny 83 28.3 54 12.2 37 37 ENE 9 15 29.50 999 10 16 0.00 0.00
8:56 pm 20:56 Sunny 78 25.6 55 12.8 45 45 ENE 12 19 29.49 999 10 16 0.00 0.00
9:56 pm 21:56 Clear 74 23.3 58 14.4 57 57 E 13 20 29.49 999 10 16 0.00 0.00
10:56 pm 22:56 Clear 74 23.3 57 13.9 56 56 E 20 31 29.50 999 10 16 0.00 0.00
11:56 pm 23:56 Clear 74 23.3 57 13.9 56 56 ESE 12 19 29.47 998 10 16 0.00 0.00

Powered by AerisWeather